DELTA 1 DEB, 26843

Orbit data source: Space-Track

DELTA 1 DEB, 26843 is space debris in SSO originally from a launch on Thu, 12 Jun 1975 UTC launched from the Air Force Western Test Range (AFWTR). Debris objects in space refer to the collection of defunct objects orbiting the Earth. Examples of debris include non-operational satellites, rocket bodies, and fragments generated from explosions, collisions, or faulty payload assembly.

Loading next visibility...
Identifier
26843, 1975-052KX
Orbit
SSO
Country
Flag of USUS
Related business
Manufacturer
Unknown
Mission
Spacecraft
Bus & Motor
Unknown
Mass
Unknown
Launch date (UTC)
1975-06-12 (51 years ago)
Launch vehicle
Unknown
Launch site
Air Force Western Test Range (AFWTR)
Object type
Payload
Rocket body
Debris
Shape & HBR
Unknown shape, 0.1 m
Radar Cross Section
Medium (>0.1 m² and <1 m²)

Expand to show TLE details & history
Last TLE update: 3 days ago

TLE from 3 days ago
0 DELTA 1 DEB
1 26843U 75052KX  26170.09253323  .00000049  00000-0  20515-3 0  9994
2 26843  99.7162  33.0572 0118175  82.0829  69.9600 13.22336902539133
Epoch: 2026-06-19T02:13Z
TLE epoch observation values (Epoch: 2026-06-19T02:13:14.871Z)
Latitude
26.30091°
Longitude
-82.75142°
Altitude
1,149.203 km
Speed
7.295 km/s
True Right ascension
14h 31m 32s
True Declination
26° 10' 18"
Sunlit
Object was in daylight at epoch
Visualization orbit readout
Latitude
Unknown
Longitude
Unknown
Altitude
Unknown
Speed
Unknown
Apparent Right ascension
Unknown
Apparent Declination
Unknown
Sunlit
N/A
Visualization observer readout
Local Sidereal Time
00:51:22
Azimuth
Unknown
Elevation
Unknown
Doppler factor
Unknown
Orbital elements
Apogee altitude
1,262.383 km
Perigee altitude
1,083.908 km
Semi-major axis
7,551.283 km
Eccentricity
0.01182
Inclination
99.7162°
RAAN
33.0572°
Arg. of periapsis
82.0829°
True anomaly
71.23856°
Mean anomaly
69.96°
Eccentric anomaly
70.59864°
Mean motion
3.30759 °/min
Orbital period
108.84 mins
BSTAR
0.00020515
Loading maneuver chart data...
Computing Atmospheric mass density...

Documentation

Showing up to 5 results
|